This demonstration page uses our WeatherBlox Daily Observations layout. Learn more.

Left ArrowRight Arrow

39.08367, -84.50855

Hourly Observations for November 21, 2022

Temp ( °F °C ) Dew Point ( °F °C ) Humidity (%) Winds ( mph kmh ) Pressure ( in mb ) Visibility ( mi km ) Precip ( " mm )
12:53 am 00:53 Clear 18 -7.8 13 -10.6 80 80 Calm 30.42 1030 9 14 0.00 0.00
1:53 am 01:53 Clear 19 -7.2 13 -10.6 77 77 Calm 30.42 1030 9 14 0.00 0.00
2:53 am 02:53 Clear 17 -8.3 12 -11.1 80 80 Calm 30.42 1030 9 14 0.00 0.00
3:53 am 03:53 Clear 17 -8.3 14 -10 87 87 Calm 30.42 1030 9 14 0.00 0.00
4:53 am 04:53 Clear 17 -8.3 13 -10.6 83 83 Calm 30.42 1030 10 16 0.00 0.00
5:53 am 05:53 Clear 16 -8.9 12 -11.1 84 84 Calm 30.42 1030 9 14 0.00 0.00
6:53 am 06:53 Clear 17 -8.3 12 -11.1 80 80 Calm 30.42 1030 10 16 0.00 0.00
7:53 am 07:53 Sunny 18 -7.8 13 -10.6 80 80 Calm 30.43 1031 10 16 0.00 0.00
8:53 am 08:53 Sunny 26 -3.3 16 -8.9 65 65 Calm 30.43 1030 10 16 0.00 0.00
9:53 am 09:53 Sunny 32 0 15 -9.4 49 49 S 6 9 30.41 1030 10 16 0.00 0.00
10:53 am 10:53 Sunny 40 4.4 10 -12.2 29 29 SSW 12 19 30.39 1029 10 16 0.00 0.00
11:53 am 11:53 Sunny 43 6.1 10 -12.2 25 25 SSW 14 22 30.36 1028 10 16 0.00 0.00
12:53 pm 12:53 Sunny 46 7.8 10 -12.2 23 23 SSW 14 22 30.33 1027 10 16 0.00 0.00
1:53 pm 13:53 Sunny 48 8.9 11 -11.7 22 22 SSW 12 19 30.31 1026 10 16 0.00 0.00
2:53 pm 14:53 Sunny 49 9.4 10 -12.2 20 20 SW 13 20 30.30 1026 10 16 0.00 0.00
3:53 pm 15:53 Sunny 49 9.4 10 -12.2 20 20 SW 14 22 30.29 1026 10 16 0.00 0.00
4:53 pm 16:53 Sunny 45 7.2 11 -11.7 25 25 SW 9 15 30.30 1026 10 16 0.00 0.00
5:53 pm 17:53 Clear 37 2.8 12 -11.1 35 35 SSW 9 15 30.32 1027 10 16 0.00 0.00
6:53 pm 18:53 Clear 37 2.8 12 -11.1 35 35 SSW 7 11 30.32 1027 10 16 0.00 0.00
7:53 pm 19:53 Clear 35 1.7 14 -10 41 41 Calm 30.33 1027 10 16 0.00 0.00
8:53 pm 20:53 Clear 29 -1.7 16 -8.9 58 58 S 3 6 30.35 1028 10 16 0.00 0.00
9:53 pm 21:53 Clear 29 -1.7 17 -8.3 61 61 Calm 30.37 1028 10 16 0.00 0.00
10:53 pm 22:53 Clear 27 -2.8 18 -7.8 68 68 Calm 30.38 1029 10 16 0.00 0.00
11:53 pm 23:53 Clear 26 -3.3 18 -7.8 71 71 Calm 30.39 1029 10 16 0.00 0.00

Powered by AerisWeather